TimeCEST,TemperatureF,Dew PointF,Humidity,Sea Level PressureIn,VisibilityMPH,Wind Direction,Wind SpeedMPH,Gust SpeedMPH,PrecipitationIn,Events,Conditions,WindDirDegrees,DateUTC
12:00 AM,66.2,42.8,43,30.18,-9999.0,North,5.8,-,N/A,,Clear,350,2013-06-27 22:00:00
1:00 AM,64.4,44.6,49,30.18,-9999.0,NNW,10.4,-,N/A,,Clear,340,2013-06-27 23:00:00
1:30 AM,64.4,44.6,49,30.18,6.2,NNW,6.9,-,N/A,,Unknown,330,2013-06-27 23:30:00
2:00 AM,65,44,36,30.20,37,NW,8.1,,,,Clear,310,2013-06-28 00:00:00
2:00 AM,64.4,44.6,49,30.18,6.2,NW,8.1,-,N/A,,Unknown,310,2013-06-28 00:00:00
2:30 AM,64.4,44.6,49,30.18,6.2,NW,8.1,-,N/A,,Unknown,320,2013-06-28 00:30:00
3:00 AM,64.4,42.8,45,30.15,6.2,WNW,10.4,-,N/A,,Unknown,300,2013-06-28 01:00:00
3:30 AM,64.4,42.8,45,30.15,6.2,NW,8.1,-,N/A,,Unknown,310,2013-06-28 01:30:00
4:00 AM,62.6,44.6,52,30.15,6.2,NNW,9.2,-,N/A,,Unknown,330,2013-06-28 02:00:00
4:30 AM,62.6,44.6,52,30.15,6.2,NNW,9.2,-,N/A,,Unknown,330,2013-06-28 02:30:00
5:00 AM,62.6,44.6,52,30.15,-9999.0,NNW,5.8,-,N/A,,Clear,330,2013-06-28 03:00:00
5:30 AM,62.6,44.6,52,30.15,-9999.0,WNW,3.5,-,N/A,,Clear,290,2013-06-28 03:30:00
6:00 AM,62.6,44.6,52,30.15,-9999.0,WNW,3.5,-,N/A,,Clear,290,2013-06-28 04:00:00
6:30 AM,60.8,44.6,55,30.15,-9999.0,WNW,4.6,-,N/A,,Clear,290,2013-06-28 04:30:00
7:00 AM,60.8,46.4,59,30.15,-9999.0,West,5.8,-,N/A,,Clear,270,2013-06-28 05:00:00
7:30 AM,60.8,46.4,59,30.15,-9999.0,SSW,4.6,-,N/A,,Clear,210,2013-06-28 05:30:00
8:00 AM,62,47,48,30.17,31,West,3.5,,,,Mostly Cloudy,260,2013-06-28 06:00:00
8:00 AM,60.8,46.4,59,30.15,-9999.0,West,3.5,-,N/A,,Clear,260,2013-06-28 06:00:00
8:30 AM,64.4,48.2,56,30.15,-9999.0,West,9.2,-,N/A,,Clear,280,2013-06-28 06:30:00
9:00 AM,66.2,48.2,52,30.15,-9999.0,West,6.9,-,N/A,,Clear,280,2013-06-28 07:00:00
10:00 AM,69.8,46.4,43,30.15,-9999.0,WNW,15.0,-,N/A,,Clear,300,2013-06-28 08:00:00
11:00 AM,73.4,48.2,41,30.15,-9999.0,NW,19.6,31.1,N/A,,Clear,310,2013-06-28 09:00:00
11:30 AM,73.4,48.2,41,30.15,-9999.0,WNW,20.7,-,N/A,,Clear,300,2013-06-28 09:30:00
12:00 PM,75.2,46.4,36,30.12,-9999.0,NW,20.7,-,N/A,,Clear,320,2013-06-28 10:00:00
12:30 PM,77.0,46.4,34,30.12,-9999.0,NW,23.0,-,N/A,,Clear,310,2013-06-28 10:30:00
1:39 PM,77.0,44.6,32,30.12,-9999.0,NW,18.4,-,N/A,,Clear,320,2013-06-28 11:39:00
2:00 PM,78,45,21,30.13,25,WNW,20.7,,,,Clear,290,2013-06-28 12:00:00
2:00 PM,78.8,44.6,30,30.12,-9999.0,WNW,20.7,-,N/A,,Clear,300,2013-06-28 12:00:00
2:30 PM,78.8,46.4,32,30.12,-9999.0,NW,20.7,-,N/A,,Clear,310,2013-06-28 12:30:00
3:30 PM,77.0,44.6,32,30.12,-9999.0,NW,17.3,-,N/A,,Clear,310,2013-06-28 13:30:00
4:00 PM,78.8,44.6,30,30.12,-9999.0,NW,19.6,-,N/A,,Clear,320,2013-06-28 14:00:00
4:30 PM,78.8,46.4,32,30.12,-9999.0,NW,23.0,-,N/A,,Clear,310,2013-06-28 14:30:00
5:00 PM,77.0,46.4,34,30.12,-9999.0,WNW,21.9,-,N/A,,Clear,300,2013-06-28 15:00:00
5:30 PM,75.2,46.4,36,30.12,-9999.0,WNW,21.9,-,N/A,,Clear,300,2013-06-28 15:30:00
6:00 PM,75.2,48.2,38,30.12,-9999.0,WNW,21.9,-,N/A,,Clear,300,2013-06-28 16:00:00
6:30 PM,75.2,48.2,38,30.12,-9999.0,WNW,21.9,-,N/A,,Clear,300,2013-06-28 16:30:00
7:00 PM,75.2,48.2,38,30.12,-9999.0,NW,21.9,-,N/A,,Clear,310,2013-06-28 17:00:00
7:30 PM,73.4,50.0,44,30.12,-9999.0,NW,23.0,-,N/A,,Clear,310,2013-06-28 17:30:00
8:00 PM,72,49,33,30.15,25,NW,21.9,,,,Scattered Clouds,310,2013-06-28 18:00:00
8:00 PM,73.4,48.2,41,30.15,-9999.0,NW,20.7,-,N/A,,Clear,320,2013-06-28 18:00:00
8:30 PM,71.6,50.0,46,30.15,-9999.0,NW,17.3,-,N/A,,Clear,310,2013-06-28 18:30:00
9:00 PM,69.8,50.0,49,30.15,-9999.0,NW,18.4,-,N/A,,Clear,310,2013-06-28 19:00:00
9:30 PM,68.0,50.0,52,30.15,-9999.0,NW,16.1,-,N/A,,Clear,310,2013-06-28 19:30:00
10:00 PM,68.0,50.0,52,30.18,-9999.0,WNW,15.0,-,N/A,,Clear,300,2013-06-28 20:00:00
10:30 PM,68.0,51.8,56,30.18,-9999.0,WNW,16.1,-,N/A,,Clear,300,2013-06-28 20:30:00
11:00 PM,66.2,51.8,60,30.21,-9999.0,WNW,12.7,-,N/A,,Clear,300,2013-06-28 21:00:00
11:30 PM,66.2,51.8,60,30.21,-9999.0,NW,10.4,-,N/A,,Clear,320,2013-06-28 21:30:00